Location: Unspecified
(0.0000°N, 0.0000°E)
Time: 01:40:07
(UTC+00:00)

SEEDS - Visible Passes

Search period start: 18 January 2019 00:00
Search period end: 28 January 2019 00:00
Orbit: 586 x 605 km, 97.5° (Epoch: 16 January)

Date Brightness Start Highest point End Pass type
(mag) Time Alt. Az. Time Alt. Az. Time Alt. Az.
22 Jan ? 18:33:01 10° S 18:36:53 38° WSW 18:40:44 10° NNW visible
23 Jan ? 18:43:04 10° SSW 18:46:37 27° WSW 18:50:09 10° NW visible
24 Jan ? 05:14:06 10° ENE 05:16:02 13° ESE 05:17:58 10° SE visible
24 Jan ? 18:53:18 10° SSW 18:56:20 20° WSW 18:59:23 10° NW visible
25 Jan ? 05:22:53 10° ENE 05:25:46 18° ESE 05:28:39 10° SE visible
25 Jan ? 19:03:47 10° SW 19:06:04 14° WSW 19:08:20 10° WNW visible
26 Jan ? 05:32:02 10° NE 05:35:30 24° ESE 05:38:57 10° SSE visible
26 Jan ? 19:15:22 10° WSW 19:15:47 10° WSW 19:16:13 10° W visible
27 Jan ? 05:41:24 10° NE 05:45:14 34° ESE 05:49:04 10° SSE visible
